Check out our new BloomSky Weather System.

Active alerts


No alerts


Thunder radar  blitzortung!


Rain radar more information rain snow radar


Visit our other weather sites:

Template documentation
and downloads

And another site



Weather Underground History page Text

Daily Summary for July 1, 2017 Units:  English    Metric   Both
« Previous Day
Next Day »
Daily Weekly Monthly Yearly Custom
  High: Low: Average:
Temperature: TemperatureF °F 80.2 °F 86.4 °F
Dew Point: DewpointF °F 72.9 °F 76.6 °F
Humidity: Humidity % 50 % 74 %
Wind Speed: WindSpeedMPH mph 0.0 mph 4.1 mph
Wind Gust: WindSpeedGustMPH mph - -
Wind:- - SSE
Pressure: PressureIn in 29.96 in -
Precipitation: 0.00 in    
Historical Graphs
 
 
Tabular Data for July 1, 2017
Time Temperature Dew Point Pressure Wind Wind Speed Wind Gust Humidity Rainfall Rate (Hourly)
TemperatureF °F DewpointF °F PressureIn in Calm     Humidity % HourlyPrecipIn in
00:04 83.3 °F 79.0 °F 29.98 in SSE 4.0 mph 11.0 mph 87 % 0.00 in
00:09 83.3 °F 79.0 °F 29.98 in South 5.0 mph 8.0 mph 87 % 0.00 in
00:14 83.3 °F 79.3 °F 29.99 in SSE 6.0 mph 10.0 mph 88 % 0.00 in
00:19 83.3 °F 79.3 °F 29.99 in South 4.0 mph 10.0 mph 88 % 0.00 in
00:24 83.3 °F 79.3 °F 29.99 in South 5.0 mph 10.0 mph 88 % 0.00 in
00:29 83.3 °F 79.3 °F 29.99 in South 4.0 mph 10.0 mph 88 % 0.00 in
00:35 83.3 °F 79.3 °F 29.99 in SSE 6.0 mph 8.0 mph 88 % 0.00 in
00:40 83.3 °F 79.3 °F 29.99 in South 6.0 mph 9.0 mph 88 % 0.00 in
00:45 83.1 °F 79.2 °F 29.99 in SSW 2.0 mph 9.0 mph 88 % 0.00 in
00:50 83.1 °F 79.2 °F 29.99 in SW 3.0 mph 9.0 mph 88 % 0.00 in
00:55 83.1 °F 79.2 °F 29.99 in South 7.0 mph 7.0 mph 88 % 0.00 in
01:00 83.1 °F 79.2 °F 29.98 in SSE 5.0 mph 9.0 mph 88 % 0.00 in
01:05 83.1 °F 79.2 °F 29.98 in SE 3.0 mph 9.0 mph 88 % 0.00 in
01:10 82.9 °F 79.0 °F 29.98 in SSE 2.0 mph 9.0 mph 88 % 0.00 in
01:15 82.9 °F 79.0 °F 29.98 in South 5.0 mph 9.0 mph 88 % 0.00 in
01:20 82.8 °F 78.8 °F 29.98 in SSE 3.0 mph 8.0 mph 88 % 0.00 in
01:25 82.8 °F 79.2 °F 29.98 in SSW 4.0 mph 8.0 mph 89 % 0.00 in
01:30 82.6 °F 79.0 °F 29.98 in SE 3.0 mph 6.0 mph 89 % 0.00 in
01:35 82.6 °F 79.0 °F 29.98 in SSW 4.0 mph 6.0 mph 89 % 0.00 in
01:40 82.6 °F 79.0 °F 29.98 in SSW 3.0 mph 6.0 mph 89 % 0.00 in
01:45 82.4 °F 78.8 °F 29.98 in SSE 3.0 mph 10.0 mph 89 % 0.00 in
01:50 82.4 °F 79.2 °F 29.98 in SSE 3.0 mph 10.0 mph 90 % 0.00 in
01:55 82.4 °F 79.2 °F 29.98 in SE 6.0 mph 10.0 mph 90 % 0.00 in
02:00 82.4 °F 79.2 °F 29.97 in South 2.0 mph 10.0 mph 90 % 0.00 in
02:05 82.2 °F 79.0 °F 29.97 in South 4.0 mph 10.0 mph 90 % 0.00 in
02:10 82.2 °F 79.0 °F 29.97 in SSE 6.0 mph 11.0 mph 90 % 0.00 in
02:15 82.2 °F 79.0 °F 29.97 in SSE 8.0 mph 11.0 mph 90 % 0.00 in
02:20 82.2 °F 79.0 °F 29.97 in ESE 5.0 mph 11.0 mph 90 % 0.00 in
02:25 82.2 °F 79.0 °F 29.97 in SE 3.0 mph 9.0 mph 90 % 0.00 in
02:31 82.2 °F 79.0 °F 29.97 in South 4.0 mph 9.0 mph 90 % 0.00 in
02:36 82.0 °F 78.8 °F 29.97 in SE 11.0 mph 11.0 mph 90 % 0.00 in
02:41 82.0 °F 78.8 °F 29.97 in SSE 4.0 mph 11.0 mph 90 % 0.00 in
02:46 82.0 °F 78.8 °F 29.97 in South 3.0 mph 11.0 mph 90 % 0.00 in
02:51 82.0 °F 78.8 °F 29.97 in SSE 3.0 mph 11.0 mph 90 % 0.00 in
02:56 81.9 °F 78.6 °F 29.97 in SW 8.0 mph 8.0 mph 90 % 0.00 in
03:01 81.9 °F 79.0 °F 29.97 in SE 3.0 mph 8.0 mph 91 % 0.00 in
03:06 81.9 °F 79.0 °F 29.97 in SSE 4.0 mph 8.0 mph 91 % 0.00 in
03:11 81.9 °F 79.0 °F 29.97 in SSE 2.0 mph 9.0 mph 91 % 0.00 in
03:16 81.9 °F 79.0 °F 29.96 in East 5.0 mph 9.0 mph 91 % 0.00 in
03:21 81.9 °F 79.0 °F 29.97 in ESE 7.0 mph 9.0 mph 91 % 0.00 in
03:26 81.9 °F 79.0 °F 29.97 in South 4.0 mph 9.0 mph 91 % 0.00 in
03:31 81.7 °F 78.8 °F 29.96 in SSW 4.0 mph 7.0 mph 91 % 0.00 in
03:36 81.7 °F 78.8 °F 29.96 in SE 4.0 mph 7.0 mph 91 % 0.00 in
03:37 81.7 °F 78.8 °F 29.96 in SSE 2.0 mph 7.0 mph 91 % 0.00 in
03:42 81.7 °F 78.8 °F 29.96 in SSE 5.0 mph 7.0 mph 91 % 0.00 in
03:48 81.5 °F 78.6 °F 29.96 in SSW 3.0 mph 6.0 mph 91 % 0.00 in
03:53 81.5 °F 78.6 °F 29.97 in ESE 3.0 mph 7.0 mph 91 % 0.00 in
03:58 81.3 °F 78.4 °F 29.97 in SSE 2.0 mph 7.0 mph 91 % 0.00 in
04:03 81.3 °F 78.8 °F 29.98 in SE 3.0 mph 7.0 mph 92 % 0.00 in
04:08 81.3 °F 78.8 °F 29.98 in ESE 1.0 mph 6.0 mph 92 % 0.00 in
04:13 81.3 °F 78.8 °F 29.99 in SE 1.0 mph 5.0 mph 92 % 0.00 in
04:18 81.1 °F 78.6 °F 29.99 in Calm   5.0 mph 92 % 0.00 in
04:23 81.1 °F 78.6 °F 29.98 in ESE 1.0 mph 5.0 mph 92 % 0.00 in
04:28 81.1 °F 78.6 °F 29.99 in Calm   3.0 mph 92 % 0.00 in
04:33 81.1 °F 78.6 °F 29.99 in SSE 1.0 mph 4.0 mph 92 % 0.00 in
04:38 81.1 °F 78.6 °F 29.99 in SE 2.0 mph 4.0 mph 92 % 0.00 in
04:43 81.1 °F 78.6 °F 29.99 in SE 2.0 mph 4.0 mph 92 % 0.00 in
04:48 81.1 °F 78.6 °F 29.99 in ESE 3.0 mph 5.0 mph 92 % 0.00 in
04:53 81.1 °F 78.6 °F 30.00 in SE 2.0 mph 5.0 mph 92 % 0.00 in
04:58 81.0 °F 78.4 °F 30.00 in East 2.0 mph 5.0 mph 92 % 0.00 in
05:03 81.0 °F 78.4 °F 30.00 in East 3.0 mph 4.0 mph 92 % 0.00 in
05:08 81.0 °F 78.4 °F 30.00 in Calm   4.0 mph 92 % 0.00 in
05:13 80.8 °F 78.3 °F 30.01 in Calm   4.0 mph 92 % 0.00 in
05:18 80.8 °F 78.3 °F 30.01 in Calm   4.0 mph 92 % 0.00 in
05:23 80.8 °F 78.3 °F 30.01 in Calm   2.0 mph 92 % 0.00 in
05:28 80.6 °F 78.1 °F 30.01 in Calm   1.0 mph 92 % 0.00 in
05:33 80.4 °F 77.9 °F 30.02 in Calm   1.0 mph 92 % 0.00 in
05:38 80.4 °F 77.9 °F 30.02 in Calm   1.0 mph 92 % 0.00 in
05:43 80.2 °F 78.1 °F 30.02 in Calm   1.0 mph 93 % 0.00 in
05:48 80.2 °F 78.1 °F 30.03 in Calm   1.0 mph 93 % 0.00 in
05:53 80.2 °F 78.1 °F 30.03 in Calm   1.0 mph 93 % 0.00 in
05:58 80.2 °F 78.1 °F 30.04 in Calm   1.0 mph 93 % 0.00 in
06:03 80.2 °F 78.1 °F 30.04 in Calm   1.0 mph 93 % 0.00 in
06:08 80.2 °F 78.1 °F 30.04 in ESE 2.0 mph 2.0 mph 93 % 0.00 in
06:13 80.2 °F 78.1 °F 30.04 in ESE 1.0 mph 3.0 mph 93 % 0.00 in
06:18 80.2 °F 78.1 °F 30.04 in Calm   3.0 mph 93 % 0.00 in
06:23 80.2 °F 78.1 °F 30.04 in Calm   3.0 mph 93 % 0.00 in
06:28 80.2 °F 78.1 °F 30.04 in Calm   2.0 mph 93 % 0.00 in
06:33 80.2 °F 78.1 °F 30.04 in ESE 1.0 mph 2.0 mph 93 % 0.00 in
06:38 80.2 °F 78.1 °F 30.04 in SE 1.0 mph 3.0 mph 93 % 0.00 in
06:43 80.2 °F 78.1 °F 30.05 in Calm   3.0 mph 93 % 0.00 in
06:48 80.2 °F 78.1 °F 30.05 in Calm   3.0 mph 93 % 0.00 in
06:53 80.2 °F 78.1 °F 30.05 in Calm   3.0 mph 93 % 0.00 in
06:58 80.2 °F 78.1 °F 30.05 in Calm   3.0 mph 93 % 0.00 in
07:03 80.2 °F 78.1 °F 30.05 in Calm   1.0 mph 93 % 0.00 in
07:08 80.4 °F 78.3 °F 30.06 in Calm   1.0 mph 93 % 0.00 in
07:13 80.4 °F 78.3 °F 30.05 in Calm   1.0 mph 93 % 0.00 in
07:19 80.6 °F 78.4 °F 30.05 in Calm   1.0 mph 93 % 0.00 in
07:24 80.6 °F 78.4 °F 30.05 in Calm   1.0 mph 93 % 0.00 in
07:29 80.8 °F 78.6 °F 30.05 in Calm   1.0 mph 93 % 0.00 in
07:34 81.0 °F 78.8 °F 30.05 in Calm   2.0 mph 93 % 0.00 in
07:39 81.3 °F 79.2 °F 30.05 in Calm   2.0 mph 93 % 0.00 in
07:44 81.3 °F 78.8 °F 30.05 in East 2.0 mph 2.0 mph 92 % 0.00 in
07:49 81.7 °F 79.2 °F 30.05 in Calm   3.0 mph 92 % 0.00 in
07:54 81.9 °F 79.3 °F 30.06 in East 3.0 mph 3.0 mph 92 % 0.00 in
07:59 82.0 °F 79.5 °F 30.06 in Calm   3.0 mph 92 % 0.00 in
08:04 82.4 °F 79.2 °F 30.06 in SE 2.0 mph 3.0 mph 90 % 0.00 in
08:05 82.4 °F 79.2 °F 30.06 in ESE 2.0 mph 3.0 mph 90 % 0.00 in
08:10 82.6 °F 79.0 °F 30.06 in SSE 2.0 mph 4.0 mph 89 % 0.00 in
08:15 82.8 °F 78.8 °F 30.06 in ESE 2.0 mph 5.0 mph 88 % 0.00 in
08:20 82.9 °F 78.6 °F 30.06 in ESE 5.0 mph 8.0 mph 87 % 0.00 in
08:25 82.9 °F 78.6 °F 30.06 in ESE 4.0 mph 8.0 mph 87 % 0.00 in
08:30 83.1 °F 78.4 °F 30.07 in ESE 6.0 mph 8.0 mph 86 % 0.00 in
08:35 83.5 °F 78.8 °F 30.07 in SE 4.0 mph 8.0 mph 86 % 0.00 in
08:40 83.7 °F 79.0 °F 30.07 in SSE 7.0 mph 8.0 mph 86 % 0.00 in
08:45 84.0 °F 79.3 °F 30.07 in SE 6.0 mph 8.0 mph 86 % 0.00 in
08:50 84.0 °F 79.0 °F 30.07 in SE 5.0 mph 8.0 mph 85 % 0.00 in
08:55 84.6 °F 79.2 °F 30.07 in SE 4.0 mph 8.0 mph 84 % 0.00 in
08:57 84.6 °F 79.2 °F 30.07 in ESE 4.0 mph 8.0 mph 84 % 0.00 in
09:01 84.7 °F 79.0 °F 30.08 in ESE 8.0 mph 8.0 mph 83 % 0.00 in
09:06 84.4 °F 78.3 °F 30.08 in SSE 3.0 mph 10.0 mph 82 % 0.00 in
09:11 84.4 °F 78.6 °F 30.08 in ESE 6.0 mph 10.0 mph 83 % 0.00 in
09:16 84.4 °F 78.3 °F 30.08 in South 3.0 mph 10.0 mph 82 % 0.00 in
09:21 84.7 °F 78.6 °F 30.08 in SSE 5.0 mph 9.0 mph 82 % 0.00 in
09:26 85.1 °F 79.0 °F 30.08 in ESE 2.0 mph 10.0 mph 82 % 0.00 in
09:32 85.6 °F 78.8 °F 30.08 in SSE 5.0 mph 10.0 mph 80 % 0.00 in
09:37 85.5 °F 78.3 °F 30.09 in ESE 5.0 mph 10.0 mph 79 % 0.00 in
09:42 85.5 °F 78.3 °F 30.09 in SSE 4.0 mph 8.0 mph 79 % 0.00 in
09:47 85.8 °F 78.1 °F 30.09 in ESE 4.0 mph 8.0 mph 78 % 0.00 in
09:52 85.8 °F 78.1 °F 30.09 in SE 5.0 mph 8.0 mph 78 % 0.00 in
09:57 86.4 °F 79.0 °F 30.09 in Calm   7.0 mph 79 % 0.00 in
10:02 86.9 °F 79.2 °F 30.09 in ESE 4.0 mph 6.0 mph 78 % 0.00 in
10:07 87.1 °F 77.7 °F 30.09 in SSW 2.0 mph 9.0 mph 74 % 0.00 in
10:12 87.4 °F 79.0 °F 30.09 in SSW 1.0 mph 9.0 mph 76 % 0.00 in
10:17 87.6 °F 77.5 °F 30.09 in SSE 4.0 mph 9.0 mph 72 % 0.00 in
10:22 87.4 °F 77.4 °F 30.09 in SSW 3.0 mph 9.0 mph 72 % 0.00 in
10:27 87.4 °F 79.0 °F 30.09 in South 1.0 mph 9.0 mph 76 % 0.00 in
10:32 88.2 °F 78.4 °F 30.08 in SE 6.0 mph 9.0 mph 73 % 0.00 in
10:34 88.3 °F 77.7 °F 30.08 in SSE 7.0 mph 9.0 mph 71 % 0.00 in
10:39 88.2 °F 77.2 °F 30.08 in SE 3.0 mph 10.0 mph 70 % 0.00 in
10:44 88.2 °F 77.2 °F 30.09 in SSE 5.0 mph 10.0 mph 70 % 0.00 in
10:49 88.3 °F 78.1 °F 30.09 in SW 3.0 mph 10.0 mph 72 % 0.00 in
10:54 88.5 °F 78.8 °F 30.09 in South 4.0 mph 10.0 mph 73 % 0.00 in
10:59 88.9 °F 77.4 °F 30.08 in SE 1.0 mph 9.0 mph 69 % 0.00 in
11:04 89.4 °F 77.5 °F 30.08 in SE 4.0 mph 8.0 mph 68 % 0.00 in
11:09 89.6 °F 77.2 °F 30.08 in ESE 4.0 mph 8.0 mph 67 % 0.00 in
11:14 89.6 °F 77.2 °F 30.08 in SE 2.0 mph 11.0 mph 67 % 0.00 in
11:19 89.4 °F 76.6 °F 30.08 in SSE 3.0 mph 16.0 mph 66 % 0.00 in
11:24 89.2 °F 76.8 °F 30.08 in South 4.0 mph 16.0 mph 67 % 0.00 in
11:29 89.2 °F 76.5 °F 30.08 in SE 9.0 mph 16.0 mph 66 % 0.00 in
11:34 89.4 °F 76.1 °F 30.08 in SSW 7.0 mph 12.0 mph 65 % 0.00 in
11:39 89.6 °F 76.3 °F 30.08 in SSE 6.0 mph 11.0 mph 65 % 0.00 in
11:40 89.6 °F 76.3 °F 30.08 in South 4.0 mph 11.0 mph 65 % 0.00 in
11:45 90.1 °F 77.7 °F 30.08 in SSW 9.0 mph 11.0 mph 67 % 0.00 in
11:50 90.7 °F 76.8 °F 30.08 in SSE 6.0 mph 11.0 mph 64 % 0.00 in
11:55 90.9 °F 76.5 °F 30.08 in SE 6.0 mph 11.0 mph 63 % 0.00 in
12:00 90.9 °F 77.0 °F 30.08 in SE 7.0 mph 11.0 mph 64 % 0.00 in
12:05 90.5 °F 76.1 °F 30.08 in SSE 4.0 mph 12.0 mph 63 % 0.00 in
12:10 90.0 °F 77.0 °F 30.08 in SW 1.0 mph 12.0 mph 66 % 0.00 in
12:15 90.5 °F 76.6 °F 30.08 in SSE 3.0 mph 12.0 mph 64 % 0.00 in
12:20 90.9 °F 77.0 °F 30.08 in SSW 4.0 mph 10.0 mph 64 % 0.00 in
12:25 91.0 °F 76.3 °F 30.08 in East 8.0 mph 8.0 mph 62 % 0.00 in
12:30 90.9 °F 76.1 °F 30.08 in South 5.0 mph 9.0 mph 62 % 0.00 in
12:31 91.0 °F 76.3 °F 30.08 in SE 4.0 mph 9.0 mph 62 % 0.00 in
12:36 91.6 °F 76.3 °F 30.08 in East 6.0 mph 11.0 mph 61 % 0.00 in
12:41 91.9 °F 77.0 °F 30.08 in SW 5.0 mph 11.0 mph 62 % 0.00 in
12:46 92.5 °F 77.0 °F 30.08 in SW 6.0 mph 11.0 mph 61 % 0.00 in
12:51 92.5 °F 77.5 °F 30.08 in South 5.0 mph 11.0 mph 62 % 0.00 in
12:56 92.8 °F 78.4 °F 30.08 in Calm   10.0 mph 63 % 0.00 in
13:01 93.0 °F 77.0 °F 30.08 in SE 5.0 mph 10.0 mph 60 % 0.00 in
13:06 92.5 °F 75.6 °F 30.08 in ESE 3.0 mph 10.0 mph 58 % 0.00 in
13:11 92.8 °F 76.8 °F 30.08 in South 3.0 mph 8.0 mph 60 % 0.00 in
13:16 93.4 °F 76.5 °F 30.08 in SSE 3.0 mph 8.0 mph 58 % 0.00 in
13:21 93.9 °F 76.8 °F 30.08 in SE 6.0 mph 8.0 mph 58 % 0.00 in
13:26 93.7 °F 75.7 °F 30.08 in SSE 3.0 mph 9.0 mph 56 % 0.00 in
13:31 93.6 °F 77.0 °F 30.07 in South 4.0 mph 9.0 mph 59 % 0.00 in
13:36 93.4 °F 75.4 °F 30.07 in SSE 9.0 mph 10.0 mph 56 % 0.00 in
13:41 93.2 °F 75.2 °F 30.07 in Calm   10.0 mph 56 % 0.00 in
13:46 93.9 °F 74.1 °F 30.07 in SE 8.0 mph 10.0 mph 53 % 0.00 in
13:47 93.9 °F 74.7 °F 30.07 in SSW 4.0 mph 10.0 mph 54 % 0.00 in
13:52 93.7 °F 73.4 °F 30.06 in South 3.0 mph 10.0 mph 52 % 0.00 in
13:57 94.5 °F 76.3 °F 30.06 in South 1.0 mph 10.0 mph 56 % 0.00 in
13:58 94.5 °F 76.3 °F 30.06 in WSW 1.0 mph 10.0 mph 56 % 0.00 in
14:03 94.6 °F 74.3 °F 30.06 in SW 2.0 mph 10.0 mph 52 % 0.00 in
14:05 94.8 °F 74.5 °F 30.06 in SSW 8.0 mph 11.0 mph 52 % 0.00 in
14:10 94.6 °F 74.3 °F 30.05 in SSE 5.0 mph 11.0 mph 52 % 0.00 in
14:15 94.6 °F 74.3 °F 30.05 in South 4.0 mph 12.0 mph 52 % 0.00 in
14:20 94.6 °F 74.3 °F 30.05 in SE 10.0 mph 12.0 mph 52 % 0.00 in
14:25 94.6 °F 74.3 °F 30.05 in SE 6.0 mph 12.0 mph 52 % 0.00 in
14:30 94.3 °F 75.0 °F 30.04 in SSW 7.0 mph 12.0 mph 54 % 0.00 in
14:35 93.9 °F 74.1 °F 30.04 in South 5.0 mph 12.0 mph 53 % 0.00 in
14:45 94.1 °F 75.4 °F 30.03 in SSW 10.0 mph 13.0 mph 55 % 0.00 in
14:50 93.9 °F 75.7 °F 30.03 in SSE 5.0 mph 13.0 mph 56 % 0.00 in
14:55 93.9 °F 75.7 °F 30.03 in South 5.0 mph 13.0 mph 56 % 0.00 in
15:00 93.9 °F 76.3 °F 30.03 in SE 4.0 mph 13.0 mph 57 % 0.00 in
15:05 94.3 °F 76.1 °F 30.02 in SE 4.0 mph 13.0 mph 56 % 0.00 in
15:10 94.3 °F 75.0 °F 30.03 in SE 7.0 mph 12.0 mph 54 % 0.00 in
15:15 94.1 °F 73.2 °F 30.03 in South 8.0 mph 12.0 mph 51 % 0.00 in
15:20 94.3 °F 73.9 °F 30.03 in SSW 6.0 mph 12.0 mph 52 % 0.00 in
15:25 94.8 °F 74.5 °F 30.02 in South 8.0 mph 11.0 mph 52 % 0.00 in
15:30 94.8 °F 74.5 °F 30.02 in SSW 8.0 mph 11.0 mph 52 % 0.00 in
15:35 94.6 °F 73.0 °F 30.01 in ESE 6.0 mph 13.0 mph 50 % 0.00 in
15:40 94.8 °F 73.9 °F 30.01 in SE 7.0 mph 13.0 mph 51 % 0.00 in
15:45 94.8 °F 74.5 °F 30.01 in SSW 11.0 mph 13.0 mph 52 % 0.00 in
15:50 94.6 °F 74.3 °F 30.01 in SE 9.0 mph 13.0 mph 52 % 0.00 in
15:55 95.0 °F 75.2 °F 30.00 in South 9.0 mph 11.0 mph 53 % 0.00 in
16:00 94.6 °F 74.8 °F 30.00 in East 9.0 mph 13.0 mph 53 % 0.00 in
16:05 94.1 °F 74.3 °F 30.00 in SE 8.0 mph 13.0 mph 53 % 0.00 in
16:10 94.5 °F 74.7 °F 30.00 in South 9.0 mph 13.0 mph 53 % 0.00 in
16:15 94.1 °F 74.8 °F 30.00 in SE 9.0 mph 14.0 mph 54 % 0.00 in
16:20 93.7 °F 74.7 °F 30.00 in SSE 9.0 mph 14.0 mph 54 % 0.00 in
16:25 93.7 °F 74.7 °F 30.00 in East 6.0 mph 14.0 mph 54 % 0.00 in
16:30 93.4 °F 75.4 °F 30.00 in South 7.0 mph 13.0 mph 56 % 0.00 in
16:35 93.4 °F 74.8 °F 29.99 in SE 7.0 mph 13.0 mph 55 % 0.00 in
16:40 93.4 °F 74.8 °F 30.00 in ESE 6.0 mph 12.0 mph 55 % 0.00 in
16:45 93.0 °F 75.0 °F 30.00 in SE 9.0 mph 12.0 mph 56 % 0.00 in
16:50 93.2 °F 74.1 °F 30.00 in SSW 7.0 mph 12.0 mph 54 % 0.00 in
16:55 93.0 °F 75.6 °F 29.99 in ENE 7.0 mph 12.0 mph 57 % 0.00 in
17:00 93.4 °F 74.3 °F 29.99 in South 5.0 mph 12.0 mph 54 % 0.00 in
17:05 93.4 °F 74.3 °F 29.99 in SSW 8.0 mph 15.0 mph 54 % 0.00 in
17:10 93.4 °F 74.3 °F 29.99 in SSE 8.0 mph 15.0 mph 54 % 0.00 in
17:15 93.4 °F 74.3 °F 29.99 in SSE 11.0 mph 15.0 mph 54 % 0.00 in
17:20 93.2 °F 74.1 °F 29.99 in SSW 4.0 mph 13.0 mph 54 % 0.00 in
17:25 93.2 °F 74.1 °F 29.99 in SSE 9.0 mph 13.0 mph 54 % 0.00 in
17:30 93.0 °F 73.9 °F 29.99 in SE 7.0 mph 13.0 mph 54 % 0.00 in
17:35 93.0 °F 73.9 °F 29.99 in South 3.0 mph 13.0 mph 54 % 0.00 in
17:40 93.2 °F 73.6 °F 30.00 in SSE 9.0 mph 11.0 mph 53 % 0.00 in
17:45 93.2 °F 74.1 °F 29.99 in SE 8.0 mph 12.0 mph 54 % 0.00 in
17:51 93.0 °F 73.4 °F 29.99 in SSW 4.0 mph 12.0 mph 53 % 0.00 in
17:56 93.2 °F 74.1 °F 29.99 in SSE 7.0 mph 12.0 mph 54 % 0.00 in
18:01 93.0 °F 72.9 °F 29.99 in WSW 5.0 mph 13.0 mph 52 % 0.00 in
18:06 92.7 °F 73.0 °F 29.99 in SE 3.0 mph 13.0 mph 53 % 0.00 in
18:11 92.7 °F 74.1 °F 30.00 in SSE 3.0 mph 13.0 mph 55 % 0.00 in
18:16 92.7 °F 73.6 °F 29.99 in SE 3.0 mph 13.0 mph 54 % 0.00 in
18:21 92.5 °F 73.4 °F 30.00 in SE 8.0 mph 16.0 mph 54 % 0.00 in
18:26 92.5 °F 73.4 °F 30.00 in ESE 5.0 mph 16.0 mph 54 % 0.00 in
18:31 92.3 °F 73.8 °F 30.00 in SSW 3.0 mph 16.0 mph 55 % 0.00 in
18:36 92.1 °F 74.7 °F 30.00 in South 5.0 mph 11.0 mph 57 % 0.00 in
18:41 92.1 °F 74.7 °F 30.00 in South 6.0 mph 10.0 mph 57 % 0.00 in
18:46 91.9 °F 75.6 °F 30.00 in SSW 9.0 mph 12.0 mph 59 % 0.00 in
18:51 91.6 °F 75.2 °F 30.01 in SSE 4.0 mph 14.0 mph 59 % 0.00 in
18:56 91.4 °F 75.6 °F 30.01 in SE 8.0 mph 14.0 mph 60 % 0.00 in
19:01 91.0 °F 75.2 °F 30.01 in SE 14.0 mph 14.0 mph 60 % 0.00 in
19:06 90.5 °F 75.2 °F 30.01 in SE 12.0 mph 14.0 mph 61 % 0.00 in
19:11 90.0 °F 75.2 °F 30.01 in South 4.0 mph 14.0 mph 62 % 0.00 in
19:16 89.8 °F 75.0 °F 30.01 in South 7.0 mph 14.0 mph 62 % 0.00 in
19:20 81.3 °F 76.6 °F 30.07 in SE 1.0 mph 6.0 mph 86 % 0.00 in
19:21 89.4 °F 74.7 °F 30.02 in SSE 5.0 mph 12.0 mph 62 % 0.00 in
19:22 81.1 °F 76.5 °F 30.07 in South 3.0 mph 6.0 mph 86 % 0.00 in
19:23 81.1 °F 76.5 °F 30.07 in South 2.0 mph 6.0 mph 86 % 0.00 in
19:26 89.4 °F 74.7 °F 30.02 in SSE 5.0 mph 12.0 mph 62 % 0.00 in
19:31 89.4 °F 74.7 °F 30.01 in ESE 9.0 mph 12.0 mph 62 % 0.00 in
19:36 89.2 °F 73.9 °F 30.02 in SSE 5.0 mph 12.0 mph 61 % 0.00 in
19:37 89.2 °F 73.9 °F 30.02 in SSE 3.0 mph 12.0 mph 61 % 0.00 in
19:42 89.1 °F 74.3 °F 30.02 in SSW 4.0 mph 12.0 mph 62 % 0.00 in
19:47 88.5 °F 74.3 °F 30.02 in SE 8.0 mph 12.0 mph 63 % 0.00 in
19:52 88.3 °F 74.1 °F 30.02 in South 6.0 mph 12.0 mph 63 % 0.00 in
19:57 88.3 °F 74.1 °F 30.03 in SSE 5.0 mph 10.0 mph 63 % 0.00 in
20:02 88.2 °F 73.9 °F 30.03 in SSE 3.0 mph 11.0 mph 63 % 0.00 in
20:07 88.0 °F 74.3 °F 30.03 in South 4.0 mph 11.0 mph 64 % 0.00 in
20:12 87.8 °F 74.1 °F 30.03 in South 3.0 mph 11.0 mph 64 % 0.00 in
20:17 87.4 °F 74.3 °F 30.03 in SSE 2.0 mph 7.0 mph 65 % 0.00 in
20:22 87.1 °F 73.9 °F 30.03 in SSW 6.0 mph 7.0 mph 65 % 0.00 in
20:27 86.9 °F 73.8 °F 30.04 in South 5.0 mph 8.0 mph 65 % 0.00 in
20:32 86.7 °F 73.6 °F 30.04 in SE 1.0 mph 8.0 mph 65 % 0.00 in
20:37 86.5 °F 73.8 °F 30.04 in SSW 2.0 mph 8.0 mph 66 % 0.00 in
20:42 86.4 °F 74.1 °F 30.04 in SE 2.0 mph 6.0 mph 67 % 0.00 in
20:47 86.4 °F 75.0 °F 30.04 in SE 3.0 mph 7.0 mph 69 % 0.00 in
20:52 86.2 °F 74.8 °F 30.04 in SSE 4.0 mph 8.0 mph 69 % 0.00 in
20:57 86.2 °F 75.2 °F 30.04 in ESE 3.0 mph 8.0 mph 70 % 0.00 in
21:02 86.0 °F 75.0 °F 30.04 in SSE 3.0 mph 8.0 mph 70 % 0.00 in
21:07 85.8 °F 75.4 °F 30.04 in SE 4.0 mph 8.0 mph 71 % 0.00 in
21:12 85.6 °F 75.6 °F 30.04 in South 5.0 mph 8.0 mph 72 % 0.00 in
21:17 85.5 °F 75.7 °F 30.04 in South 4.0 mph 8.0 mph 73 % 0.00 in
21:22 85.5 °F 76.3 °F 30.04 in ESE 6.0 mph 8.0 mph 74 % 0.00 in
21:27 85.3 °F 76.5 °F 30.04 in ESE 4.0 mph 8.0 mph 75 % 0.00 in
21:32 85.1 °F 76.3 °F 30.05 in SSE 2.0 mph 8.0 mph 75 % 0.00 in
21:33 85.1 °F 76.6 °F 30.05 in SSE 2.0 mph 8.0 mph 76 % 0.00 in
21:38 84.9 °F 76.5 °F 30.05 in SE 4.0 mph 8.0 mph 76 % 0.00 in
21:43 84.7 °F 76.6 °F 30.05 in South 4.0 mph 8.0 mph 77 % 0.00 in
21:49 84.6 °F 76.5 °F 30.05 in SE 3.0 mph 8.0 mph 77 % 0.00 in
21:54 84.4 °F 76.8 °F 30.05 in South 3.0 mph 8.0 mph 78 % 0.00 in
21:59 84.2 °F 76.6 °F 30.06 in SSW 5.0 mph 7.0 mph 78 % 0.00 in
22:04 84.0 °F 76.5 °F 30.06 in South 2.0 mph 7.0 mph 78 % 0.00 in
22:09 83.8 °F 76.6 °F 30.06 in SSE 5.0 mph 7.0 mph 79 % 0.00 in
22:14 83.8 °F 76.6 °F 30.06 in ESE 5.0 mph 6.0 mph 79 % 0.00 in
22:19 83.7 °F 76.5 °F 30.06 in South 3.0 mph 8.0 mph 79 % 0.00 in
22:24 83.7 °F 76.8 °F 30.06 in SSE 4.0 mph 8.0 mph 80 % 0.00 in
22:29 83.5 °F 76.6 °F 30.06 in SE 3.0 mph 8.0 mph 80 % 0.00 in
22:34 83.3 °F 76.5 °F 30.06 in SSE 4.0 mph 7.0 mph 80 % 0.00 in
22:39 83.1 °F 76.6 °F 30.06 in SSE 4.0 mph 7.0 mph 81 % 0.00 in
22:44 82.9 °F 76.5 °F 30.06 in SSE 2.0 mph 7.0 mph 81 % 0.00 in
22:49 82.9 °F 76.8 °F 30.07 in SE 3.0 mph 7.0 mph 82 % 0.00 in
22:54 82.8 °F 76.6 °F 30.07 in SSE 4.0 mph 7.0 mph 82 % 0.00 in
22:59 82.8 °F 76.6 °F 30.07 in SE 2.0 mph 6.0 mph 82 % 0.00 in
23:04 82.6 °F 76.5 °F 30.07 in South 2.0 mph 6.0 mph 82 % 0.00 in
23:09 82.4 °F 76.6 °F 30.07 in SE 1.0 mph 6.0 mph 83 % 0.00 in
23:14 82.4 °F 76.6 °F 30.07 in South 3.0 mph 6.0 mph 83 % 0.00 in
23:19 82.2 °F 76.5 °F 30.07 in South 3.0 mph 6.0 mph 83 % 0.00 in
23:24 82.2 °F 76.5 °F 30.07 in SSE 3.0 mph 6.0 mph 83 % 0.00 in
23:29 82.0 °F 76.3 °F 30.07 in SSW 3.0 mph 6.0 mph 83 % 0.00 in
Spring, Texas: Villages of Bridgestone
Compliments of Weather Underground - 2.75 mb

Script developed by  Jim McMurry - jmcmurry@mwt.net Adapted for the template by  Wim van der Kuil - Leuven-Template.eu

You find our weather info also at:

UK Metoffice

WeatherCloud

Weather Underground

Mid-South Weather Network

AWEKAS

Citizen Weather Observer Program (CWOP)

HAMweather, WeatherForYou, PWS Weather

Equipment we use:

Weather-station
Davis Vantage Vue

Weather-program
Meteohub

Weather-server
Debian 7.9 x86 (Guest)

Provider
DreamHost

Davis Vantage Vue

Meteohub

Debian 7.9 x86 (Guest)

DreamHost